Home   Weather   Ede   Past weeks
Flag for Netherlands

Past Weather in Ede, Netherlands — Yesterday and Last 2 Weeks

Now
57 °F

Fog.


Feels Like: 56 °F
Forecast: 56 / 49 °F
Wind: 7 mph from Southwest

Location: Deelen

Current Time: Oct 17, 2019 at 12:42:19 pm

Latest Report: Oct 17, 2019 at 11:55 am


Visibility: 6 mi

Pressure: 29.83 "Hg

Humidity: 94%

Dew Point: 55 °F

Location of EdeLocation

Past Weather in Ede — Graph

°F

Ede Temperature Yesterday

Maximum temperature yesterday: 59 °F (at 12:25 pm)
Minimum temperature yesterday: 52 °F (at 5:55 am)
Average temperature yesterday: 55 °F

High & Low Weather Summary for the Past Weeks

 TemperatureHumidityPressure
High72 °F (Oct 13, 1:55 pm)100% (Oct 2, 11:55 pm)30.09 "Hg (Oct 2, 11:55 pm)
Low41 °F (Oct 7, 7:55 am)59% (Oct 2, 1:25 pm)29.53 "Hg (Oct 4, 2:25 pm)
Average54 °F90%29.82 "Hg
* Reported Oct 2 11:25 am — Oct 17 11:25 am, Ede. Weather by CustomWeather, © 2019

Note: Actual official high and low records may vary slightly from our data, if they occured in-between our weather recording intervals... More about our weather records

Advertising

Ede Weather History for the Previous 24 Hours

Scroll right to see more
 ConditionsComfort  
Time TempWeatherWind HumidityBarometerVisibility
11:25 am
Thu, Oct 17
55 °FPartly sunny.8 mph94%29.83 "HgN/A
10:55 am55 °FPartly sunny.5 mph100%29.83 "HgN/A
10:25 am55 °FMostly cloudy.3 mph94%29.80 "HgN/A
9:55 am54 °FMostly cloudy.3 mph100%29.80 "HgN/A
9:25 am54 °FBroken clouds.2 mph100%29.80 "HgN/A
8:55 am54 °FFog.5 mph100%29.80 "Hg6 mi
8:25 am54 °FDrizzle. Mostly cloudy.7 mph100%29.77 "Hg2 mi
7:55 am55 °FDrizzle. Mostly cloudy.8 mph94%29.77 "Hg3 mi
7:25 am55 °FPartly cloudy.7 mph100%29.74 "Hg1 mi
6:55 am57 °FDrizzle. Mostly cloudy.10 mph100%29.74 "Hg2 mi
6:25 am57 °FDrizzle. Mostly cloudy.13 mph100%29.71 "Hg2 mi
5:55 am57 °FPartly cloudy.12 mph94%29.71 "Hg3 mi
5:25 am57 °FDrizzle. Mostly cloudy.13 mph94%29.71 "Hg3 mi
4:55 am55 °FDrizzle. Overcast.12 mph100%29.71 "Hg2 mi
4:25 am55 °FDrizzle. Mostly cloudy.13 mph100%29.71 "Hg2 mi
3:55 am55 °FPassing clouds.13 mph100%29.71 "Hg3 mi
3:25 am55 °FPartly cloudy.13 mph100%29.71 "Hg3 mi
2:55 am55 °FFog.14 mph100%29.71 "Hg4 mi
2:25 am55 °FMostly cloudy.13 mph100%29.71 "HgN/A
1:55 am55 °FPassing clouds.13 mph100%29.71 "Hg6 mi
1:25 am55 °FPartly cloudy.13 mph100%29.71 "Hg6 mi
12:55 am57 °FPartly cloudy.14 mph94%29.71 "Hg4 mi
12:25 am57 °FPartly cloudy.13 mph94%29.71 "Hg4 mi
11:55 pm
Wed, Oct 16
57 °FPassing clouds.13 mph94%29.71 "Hg4 mi
11:25 pm57 °FDrizzle. Mostly cloudy.14 mph100%29.71 "Hg4 mi
10:55 pm57 °FDrizzle. Mostly cloudy.13 mph100%29.71 "HgN/A
10:25 pm57 °FLight rain. Partly cloudy.12 mph100%29.71 "HgN/A
9:55 pm57 °FRain. Partly cloudy.12 mph100%29.71 "Hg5 mi
9:25 pm57 °FRain. Partly cloudy.13 mph100%29.71 "Hg5 mi
8:55 pm57 °FLight rain. Partly cloudy.12 mph100%29.71 "Hg4 mi
8:25 pm57 °FLight rain. Partly cloudy.14 mph100%29.71 "HgN/A
7:55 pm57 °FPartly cloudy.13 mph94%29.71 "Hg4 mi
7:25 pm57 °FPartly cloudy.12 mph94%29.71 "Hg3 mi
6:55 pm57 °FDrizzle. Mostly cloudy.13 mph94%29.71 "Hg3 mi
6:25 pm57 °FDrizzle. Partly sunny.14 mph94%29.71 "Hg4 mi
5:55 pm57 °FMostly cloudy.12 mph94%29.71 "HgN/A
5:25 pm57 °FDrizzle. More clouds than sun.10 mph94%29.71 "HgN/A
4:55 pm57 °FDrizzle. Mostly cloudy.9 mph94%29.71 "Hg6 mi
4:25 pm55 °FMostly cloudy.12 mph100%29.71 "HgN/A
3:55 pm55 °FDrizzle. Broken clouds.12 mph100%29.71 "Hg3 mi
3:25 pm57 °FFog.13 mph94%29.71 "Hg4 mi
2:55 pm55 °FBroken clouds.10 mph100%29.74 "HgN/A
2:25 pm57 °FOvercast.13 mph88%29.74 "HgN/A
1:55 pm57 °FOvercast.10 mph88%29.74 "HgN/A
1:25 pm55 °FLight rain. Low clouds.10 mph94%29.74 "HgN/A
12:55 pm57 °FOvercast.10 mph82%29.77 "HgN/A
12:25 pm59 °FOvercast.13 mph82%29.77 "HgN/A
Weather by CustomWeather, © 2019

See weather overview